Flag for Canada Weather past 2 weeks in Newmarket, Ontario, Canada

Now
72 °F

Passing clouds.


Feels Like: 77 °F
Forecast: 50 / 76 °F
Wind: 5 mph from Northwest

Location: Borden

Current Time: Jul 4, 2015 at 11:23:10 AM

Latest Report: Jul 4, 2015 at 11:00 AM


Visibility: 9 mi

Pressure: 29.96 "Hg

Humidity: 53%

Dew point: 54 °F

Location of NewmarketLocation

Historic Weather in Newmarket — Graph

°F

Newmarket temperature yesterday

Maximum temperature yesterday: 75 °F (at 6:00 PM)
Minimum temperature yesterday: 37 °F (at 5:00 AM)
Average temperature yesterday: 58 °F

Past Weeks' High & Low Weather Summary

 TemperatureHumidityPressure
High82 °F (Jun 22, 3:00 PM)100% (Jun 19, 11:00 PM)30.13 "Hg (Jun 19, 11:00 PM)
Low37 °F (Jul 3, 5:00 AM)33% (Jun 26, 2:00 PM)29.60 "Hg (Jun 23, 5:00 AM)
Average62 °F81%29.92 "Hg
* Reported Jun 19 10:00 AM — Jul 4 10:00 AM, Newmarket, Weather by CustomWeather, © 2015

Note: Actual official high and low records may vary slightly from our data, if they occured in-between our weather recording intervals... More about our weather records

Advertising

Newmarket weather history for previous 24 hours

 ConditionsComfort  
Time TempWeatherWind HumidityBarometerVisibility
10:00 AM
Sat, Jul 4
68 °FSunny.3 mph64%29.96 "Hg9 mi
9:00 AM61 °FSunny.No wind72%29.96 "Hg9 mi
8:00 AM54 °FSunny.2 mph94%29.95 "Hg9 mi
7:00 AM48 °FSunny.No wind100%29.94 "Hg9 mi
6:00 AM46 °FClear.2 mph93%29.93 "Hg9 mi
5:00 AM46 °FClear.No wind100%29.93 "Hg9 mi
4:00 AM46 °FClear.No wind100%29.93 "Hg9 mi
3:00 AM46 °FClear.No wind100%29.93 "Hg9 mi
2:00 AM48 °FClear.2 mph100%29.94 "Hg9 mi
1:00 AM50 °FClear.No wind100%29.95 "Hg9 mi
12:00 AM52 °FClear.No wind100%29.95 "Hg9 mi
11:00 PM
Fri, Jul 3
55 °FClear.No wind88%29.95 "Hg9 mi
10:00 PM59 °FSunny.3 mph82%29.95 "Hg9 mi
9:00 PM63 °FSunny.3 mph64%29.93 "Hg9 mi
8:00 PM70 °FSunny.5 mph50%29.93 "Hg9 mi
7:00 PM73 °FSunny.9 mph41%29.93 "Hg9 mi
6:00 PM75 °FSunny.7 mph39%29.94 "Hg9 mi
5:00 PM73 °FSunny.7 mph38%29.96 "Hg9 mi
4:00 PM73 °FSunny.7 mph38%29.98 "Hg9 mi
3:00 PM72 °FSunny.2 mph41%29.99 "Hg9 mi
2:00 PM72 °FPassing clouds.3 mph36%29.99 "Hg9 mi
1:00 PM72 °FPassing clouds.8 mph38%30.01 "Hg9 mi
12:00 PM70 °FSunny.No wind38%30.01 "Hg9 mi
11:00 AM68 °FSunny.5 mph46%30.02 "Hg9 mi
Weather by CustomWeather, © 2015

See weather overviewHow to use our weather pages